Location: Albany
(35.0170°S, 117.8920°E)
Time: 20:07:55
(UTC+08:00)

A-11 Canister half - Pass Details

Date: 29 January 2021
Orbit: 1525 x 1684 km, 47.3° (Epoch: 03 March)

Event Time Altitude Azimuth Distance (km) Brightness Sun altitude
Rises 04:00:21 0° 260° (W) 4,942 - -15.8°
Exits shadow 04:00:45 - 259° (W) 4,827 11.2 -15.8°
Reaches altitude 10° 04:03:52 10° 252° (WSW) 3,946 10.8 -15.3°
Maximum altitude 04:13:16 41° 184° (S) 2,259 10.1 -13.7°
Drops below altitude 10° 04:22:26 10° 116° (ESE) 3,845 12.6 -12.1°
Sets 04:25:49 0° 108° (ESE) 4,806 13.4 -11.5°
